Weather WX

World > North America > United States > Pennsylvania

Compass, Pennsylvania Regional Weather

Lat: 40.01N, Lon: 76W
Wx Zone: PAZ066
Warning FLW WEATHER ALERT - (More Info. Click Here) Warning
Feedback

Compass, PA Regional Weather

Expires:201906161200;;157531
ASUS41 KPHI 161112
RWRPHI

REGIONAL WEATHER ROUNDUP
NATIONAL WEATHER SERVICE MOUNT HOLLY NJ
700 AM EDT SUN JUN 16 2019

NOTE:  "FAIR" INDICATES FEW OR NO CLOUDS BELOW 12,000 FEET WITH NO
SIGNIFICANT WEATHER AND/OR OBSTRUCTIONS TO VISIBILITY.

 * = STATION DOES NOT REPORT PRECIPITATION (E.G. RAIN, SNOW, ETC.) 
        OR FOG.


PAZ043-044-047-054-055-060>062-066>071-161200-
EASTERN PENNSYLVANIA
  
CITY           SKY/WX    TMP DP  RH WIND       PRES   REMARKS
PHILADELPHIA   CLOUDY    70  60  70 S9        29.91F                  
NORTH PHILA    FAIR      71  59  65 SW7       29.93S                  
BLUE BELL*     FAIR      68  59  72 S5        29.91F                  
DOYLESTOWN     FAIR      69  58  67 VRB5      29.91S                  
QUAKERTOWN*    MOSUNNY   68  61  77 S5        29.91F                  
PERKASIE*      FAIR      66  61  82 CALM      29.92F                  
POTTSTOWN      FAIR      68  59  73 CALM      29.92F                  
LANCASTER      FAIR      69  59  70 SE5       29.89S                  
COATESVILLE    FAIR      66  59  77 CALM      29.93S                  
WEST CHESTER   FAIR      68  57  68 S3        29.92F                  
READING        FAIR      70  59  68 S6        29.88F                  
ALLENTOWN      FAIR      69  59  70 S3        29.89F                  
QN CITY/ALNTWN FAIR     N/A N/A N/A SW3       29.91S                  
MOUNT POCONO   CLOUDY    61  57  87 SW3       29.93F                  
HAZLETON       FAIR      63  57  82 S3        29.94S                  
LEHIGHTON      FAIR      61  61 100 CALM      29.91S FOG              
WILKES BARRE   CLOUDY    63  61  93 NE3       29.89F                  

$$

SKY/WX - Weather  TMP - Temperature  DP - Dew Point  RH - Relative Humidity
WIND - Wind Direction/Speed PRES - Barometric Pressure VSB - Visibility
WCI - Wind Chill Index E13G22 Wind - East Wind 13 mph/Gusts of 22 mph